Wind_Speed
12 13 14 14 14 14 15 17 17 16 16 16 17 18 18 18 18 18 17 18 18 16 16 17 17 16 16 15 16 16 16 16 15 15 15 15 15 16 16 16 15 14 14 13
12 13 13 14 13 14 15 16 15 15 15 16 16 16 17 18 18 18 18 18 17 16 16 16 16 16 15 14 14 15 15 14 14 13 13 14 14 15 15 14 13 13 12 11
12 12 13 12 11 12 13 14 14 14 15 16 16 16 17 17 17 18 17 17 16 16 16 16 15 14 13 13 14 14 13 12 12 12 12 12 13 13 13 12 11 10 10 9
12 12 11 10 10 11 12 13 13 13 15 15 15 16 17 17 17 18 17 17 16 16 15 14 14 13 12 12 12 12 11 10 11 10 10 11 11 12 11 11 10 9 8 6
11 10 10 10 10 10 11 11 12 13 14 15 16 17 17 17 17 17 17 16 15 14 13 12 11 11 10 10 11 10 9 9 9 9 9 9 10 10 10 10 9 8 7 6
10 10 9 9 9 9 10 10 12 13 14 16 16 17 17 17 16 16 15 14 12 11 10 9 9 8 8 8 8 8 7 7 7 7 7 7 8 9 9 9 8 7 7 6
9 9 8 8 8 9 9 11 12 13 14 15 15 16 16 15 14 13 12 11 10 9 7 7 7 6 6 6 6 6 6 6 6 6 6 6 7 7 8 8 8 8 8 7
8 8 8 8 9 9 9 10 12 12 13 13 14 14 14 13 12 10 9 8 7 6 6 6 5 5 5 4 4 4 4 5 5 5 6 6 7 7 7 8 8 8 8 7
7 7 7 7 8 8 9 10 11 11 11 12 12 12 11 11 10 8 7 6 6 6 5 5 5 4 4 4 4 3 4 5 5 5 5 6 6 7 7 8 8 8 8 8
7 8 8 7 7 7 8 9 10 9 10 11 11 11 11 10 9 7 6 5 5 5 5 5 5 4 4 4 4 4 4 5 5 5 5 5 6 6 7 7 8 8 9 8
7 7 7 7 6 6 7 9 8 9 10 10 11 11 10 9 8 7 7 6 5 5 5 5 5 5 5 5 5 5 5 5 5 5 5 5 5 6 7 7 7 8 8 8
7 7 7 6 6 6 7 8 8 8 9 9 10 10 9 9 8 7 7 6 6 6 6 6 6 6 6 5 5 5 5 6 5 5 5 5 6 6 6 6 6 7 7 8
6 6 6 5 5 5 6 6 6 7 7 8 9 10 10 9 9 8 8 7 7 7 7 7 7 6 6 6 6 6 5 5 5 5 5 5 6 6 5 5 6 6 6 7
5 5 4 4 4 5 5 5 5 6 6 7 8 9 9 9 9 8 8 8 8 8 8 8 8 7 6 6 6 6 6 6 5 5 5 5 6 6 5 5 5 5 6 6
5 5 4 3 3 4 4 4 4 5 6 7 7 7 8 9 9 9 8 8 7 7 7 7 7 7 7 6 6 6 6 6 5 5 6 5 5 6 5 5 5 5 5 5
5 4 3 2 2 3 3 3 4 4 5 6 6 7 8 8 8 8 8 7 7 7 7 7 7 7 7 7 6 6 6 6 6 6 6 5 6 6 5 5 5 4 4 4
4 3 2 2 2 2 2 2 3 4 5 5 6 7 7 7 8 8 8 7 7 7 7 7 7 7 6 6 6 6 6 6 5 6 6 5 5 5 5 4 4 4 3 3
4 2 2 1 1 1 0 2 3 4 4 4 5 5 6 7 7 8 8 7 7 7 7 7 7 6 6 6 5 5 6 6 5 5 5 5 5 5 4 4 4 3 3 3
4 3 2 2 1 1 0 1 2 3 4 4 4 5 5 6 6 6 7 7 6 6 7 6 6 6 6 6 5 6 6 6 5 5 6 5 5 5 4 4 3 3 3 3
5 4 3 2 2 1 1 1 1 2 3 4 4 4 5 5 6 6 6 6 6 6 6 6 6 6 6 6 6 6 6 6 5 6 6 5 5 4 4 4 3 3 3 3
6 5 4 3 2 2 1 1 1 2 2 3 4 4 4 5 6 6 6 6 6 5 5 5 5 6 6 6 6 7 7 7 7 7 6 6 5 5 4 4 4 5 5 5
7 6 5 3 3 3 2 2 1 2 2 3 3 4 4 5 5 5 5 5 5 5 5 6 6 6 6 6 6 6 7 7 8 8 8 7 7 6 6 7 7 7 7 8
9 7 6 4 4 4 3 3 2 2 3 3 3 4 4 5 5 6 6 6 5 5 6 6 6 7 7 7 7 8 8 8 8 9 9 9 8 8 8 9 9 10 10 11
9 8 7 6 5 5 4 4 4 4 4 4 4 5 5 6 6 7 7 7 7 7 7 7 7 8 8 9 9 9 10 10 10 10 10 11 11 11 11 12 12 13 14 14
9 8 8 7 7 6 6 5 5 5 5 5 6 6 6 7 7 8 8 8 8 9 9 9 9 10 10 11 11 11 12 12 12 12 13 14 14 14 15 16 16 17 17 18
10 9 9 8 8 7 7 7 7 6 7 7 7 8 8 8 9 9 9 10 10 10 11 11 11 11 12 13 14 14 14 15 15 16 17 17 17 18 18 19 20 20 21 22
10 10 9 9 8 8 8 8 8 7 8 8 9 9 10 10 11 11 11 11 11 11 12 12 13 13 14 15 16 16 17 17 18 19 20 20 21 21 21 22 22 23 24 25
Wind_Direction
267 266 265 268 275 280 282 286 290 296 298 298 299 300 301 303 304 305 305 304 304 302 304 306 307 308 307 303 301 303 305 308 309 308 312 313 314 314 312 310 310 309 308 304
266 267 269 273 280 284 286 290 294 297 297 299 301 304 305 307 305 304 305 305 306 306 305 305 306 307 305 304 304 304 306 309 310 311 315 316 317 318 316 315 315 314 311 307
267 267 273 279 284 285 288 294 298 300 302 302 304 306 307 305 306 305 304 304 304 301 301 304 304 306 306 306 306 305 307 308 311 313 314 317 319 320 321 323 325 326 326 325
272 272 278 287 287 289 293 299 301 302 305 307 307 309 308 309 309 307 304 304 304 304 304 305 305 305 305 307 309 308 306 307 309 314 318 320 324 328 329 331 333 338 344 344
277 279 285 288 290 291 297 303 308 310 311 310 311 311 312 312 311 309 307 307 306 306 305 306 308 309 305 307 310 310 311 312 313 320 325 327 331 337 341 345 348 352 358 0
280 282 290 292 290 298 302 306 313 316 317 316 315 314 314 315 314 312 311 310 309 308 308 309 311 313 310 312 316 318 322 324 326 331 331 335 344 350 353 358 3 5 4 4
280 285 290 295 301 309 315 322 323 321 321 322 320 319 320 321 320 319 318 317 317 317 316 318 319 318 316 319 325 331 331 334 333 338 343 350 356 2 3 9 14 13 12 13
280 287 293 298 310 318 325 325 326 327 329 330 328 327 328 329 328 328 328 327 330 330 326 327 327 327 326 327 329 335 344 347 354 4 9 9 11 13 16 21 23 26 28 29
287 297 301 305 315 323 327 329 332 335 339 342 342 342 344 343 340 339 340 340 342 343 341 340 341 345 344 353 360 357 354 359 2 12 18 20 22 24 30 31 32 33 38 45
283 294 302 311 323 328 330 333 336 340 345 352 354 356 355 355 358 0 2 5 8 12 12 10 13 20 20 22 26 23 24 25 28 28 30 28 28 30 30 34 38 40 45 52
283 292 301 310 323 329 331 336 341 345 352 359 1 2 2 5 11 19 24 29 29 27 26 30 34 39 42 42 40 43 41 41 43 45 43 35 35 37 38 43 44 45 50 52
284 296 304 315 322 330 339 341 345 347 354 2 6 7 11 19 26 30 35 41 41 37 41 44 44 46 47 45 51 51 52 52 52 48 43 37 37 36 36 42 44 45 51 53
289 303 311 313 322 333 345 349 352 357 3 10 13 16 23 29 35 39 45 49 49 47 46 45 45 49 52 55 53 53 56 54 48 46 43 39 38 34 34 40 46 49 51 55
286 306 315 313 324 337 343 348 358 7 13 17 18 24 29 31 36 40 44 50 52 51 49 49 51 53 54 52 53 54 53 46 38 35 33 32 33 33 36 40 44 49 48 48
277 292 298 299 322 335 341 348 2 12 16 19 23 27 30 33 36 38 41 47 49 47 46 45 47 50 50 52 54 53 48 42 36 32 27 28 29 30 34 39 41 48 52 46
259 269 268 281 321 335 341 349 7 16 22 24 24 23 26 30 34 36 37 41 41 40 40 40 42 44 46 49 53 55 54 46 38 32 28 27 27 27 29 34 39 43 41 36
240 236 242 266 303 330 348 0 13 19 22 22 22 24 29 32 32 33 34 37 36 34 36 38 41 43 42 45 49 50 46 40 35 31 28 24 18 16 18 21 23 22 18 19
221 221 231 254 252 237 325 7 15 15 15 15 18 23 27 30 31 31 33 37 37 35 34 35 38 39 39 40 38 36 32 26 22 21 17 11 8 8 8 9 8 5 5 8
216 219 226 226 208 206 243 355 5 9 12 15 19 23 25 25 22 21 23 26 28 30 32 33 33 33 32 30 25 19 16 15 10 2 357 356 355 359 359 360 1 1 360 359
211 212 215 219 209 209 236 306 342 355 3 7 11 15 19 19 18 18 17 20 23 27 28 28 27 26 25 19 11 5 3 3 0 353 349 347 349 350 348 349 346 343 339 332
213 215 219 221 215 223 244 270 309 337 350 357 360 3 8 11 11 10 11 13 14 15 16 17 15 11 8 5 1 356 355 353 350 346 342 341 340 336 329 323 321 318 314 310
214 217 222 224 222 230 244 258 282 308 324 338 347 352 355 357 358 358 358 358 355 353 352 353 353 350 348 348 347 343 339 336 334 333 333 332 329 324 319 314 310 307 304 303
214 218 225 233 237 239 244 252 264 281 298 315 328 332 333 337 341 343 342 341 337 334 334 334 334 332 330 329 329 327 326 324 322 322 321 320 317 313 311 308 305 302 299 298
216 221 228 235 240 243 248 256 262 272 285 299 310 314 317 321 325 329 331 330 328 323 320 319 319 320 321 320 320 320 317 315 313 312 311 309 308 306 304 302 301 299 298 297
218 223 230 236 241 246 250 252 258 268 280 291 299 305 309 312 313 315 316 317 318 319 317 315 314 313 313 313 314 314 313 311 310 308 307 306 303 301 299 298 297 295 295 295
219 224 231 238 244 248 251 255 261 268 277 285 292 296 299 302 305 308 310 311 312 313 313 311 310 310 310 309 309 308 307 305 304 304 303 302 300 298 297 297 296 295 294 294
221 227 234 239 244 249 254 259 263 270 278 284 288 292 295 296 298 302 305 307 309 310 310 310 309 308 307 306 305 304 302 301 300 300 300 299 298 297 297 296 296 295 294 293
Height
5829 5829 5828 5828 5827 5827 5826 5824 5823 5822 5820 5819 5817 5815 5812 5810 5807 5805 5803 5801 5798 5796 5793 5791 5789 5787 5785 5782 5780 5777 5775 5773 5770 5768 5765 5762 5759 5756 5753 5750 5747 5745 5742 5740
5826 5825 5825 5824 5824 5823 5822 5821 5819 5818 5817 5815 5812 5810 5807 5805 5803 5800 5798 5796 5794 5791 5789 5787 5785 5782 5780 5778 5776 5774 5772 5769 5767 5764 5761 5759 5756 5753 5750 5747 5744 5741 5739 5737
5823 5822 5822 5821 5821 5819 5819 5817 5816 5814 5813 5810 5808 5806 5803 5800 5798 5796 5793 5791 5789 5787 5785 5783 5780 5778 5776 5774 5772 5770 5768 5766 5764 5761 5759 5756 5753 5750 5748 5744 5742 5739 5736 5734
5819 5820 5819 5821 5817 5816 5815 5813 5812 5810 5808 5806 5804 5802 5799 5796 5793 5791 5789 5786 5784 5782 5780 5778 5776 5774 5772 5770 5769 5767 5765 5763 5761 5759 5756 5754 5751 5748 5745 5743 5740 5738 5735 5733
5816 5815 5816 5816 5814 5813 5811 5810 5809 5806 5804 5802 5799 5797 5794 5791 5789 5786 5784 5781 5779 5777 5776 5774 5772 5771 5769 5768 5766 5763 5762 5760 5758 5756 5754 5752 5750 5747 5744 5742 5739 5737 5735 5733
5813 5813 5813 5814 5812 5810 5809 5807 5805 5803 5800 5797 5794 5792 5790 5786 5784 5781 5779 5777 5775 5773 5772 5770 5769 5767 5766 5765 5763 5761 5759 5758 5756 5755 5753 5751 5749 5746 5744 5741 5739 5737 5735 5733
5810 5810 5810 5810 5809 5808 5807 5806 5802 5799 5797 5794 5791 5789 5786 5782 5779 5777 5775 5773 5771 5770 5768 5767 5766 5765 5764 5763 5761 5760 5758 5756 5755 5753 5752 5750 5748 5746 5744 5741 5739 5737 5735 5733
5808 5807 5809 5807 5806 5805 5804 5801 5799 5796 5794 5791 5788 5785 5782 5779 5776 5774 5772 5770 5769 5768 5766 5765 5764 5763 5762 5761 5760 5758 5757 5755 5753 5752 5751 5749 5748 5746 5744 5742 5740 5737 5735 5733
5806 5807 5806 5804 5803 5802 5801 5799 5796 5794 5791 5789 5786 5783 5780 5777 5774 5772 5770 5769 5768 5767 5765 5764 5763 5762 5761 5760 5759 5758 5756 5755 5753 5752 5751 5749 5748 5746 5744 5742 5740 5738 5736 5734
5804 5803 5803 5802 5801 5800 5799 5797 5794 5792 5790 5788 5785 5781 5779 5776 5774 5771 5770 5769 5768 5766 5765 5764 5762 5761 5761 5760 5759 5757 5756 5755 5753 5752 5751 5750 5748 5747 5745 5743 5742 5740 5738 5736
5801 5801 5801 5800 5799 5798 5797 5795 5793 5791 5789 5787 5784 5781 5779 5776 5774 5772 5770 5769 5768 5767 5765 5764 5763 5762 5761 5760 5759 5758 5756 5755 5754 5753 5752 5750 5749 5747 5746 5744 5743 5741 5740 5738
5800 5799 5799 5798 5797 5796 5795 5794 5792 5790 5788 5786 5784 5781 5779 5777 5774 5772 5771 5770 5769 5767 5766 5765 5763 5762 5762 5761 5760 5758 5757 5756 5755 5754 5753 5751 5750 5749 5747 5746 5744 5743 5742 5740
5797 5797 5796 5796 5795 5794 5794 5792 5791 5790 5788 5786 5785 5782 5780 5777 5776 5774 5772 5771 5770 5769 5767 5766 5765 5763 5762 5762 5761 5759 5758 5757 5756 5755 5754 5753 5751 5750 5748 5747 5746 5744 5743 5742
5795 5795 5794 5794 5794 5793 5792 5791 5790 5789 5788 5786 5785 5783 5781 5779 5777 5775 5774 5773 5771 5770 5769 5767 5766 5765 5764 5763 5762 5760 5759 5758 5757 5756 5755 5754 5752 5751 5749 5748 5747 5746 5745 5744
5793 5793 5793 5793 5792 5792 5791 5791 5790 5789 5788 5787 5786 5784 5782 5780 5778 5777 5775 5774 5773 5771 5770 5769 5767 5766 5765 5764 5763 5761 5760 5760 5758 5757 5756 5754 5753 5752 5750 5749 5748 5747 5746 5745
5791 5791 5791 5791 5792 5791 5791 5790 5790 5789 5788 5787 5786 5785 5783 5781 5780 5778 5777 5775 5774 5773 5772 5770 5769 5767 5766 5765 5764 5763 5762 5761 5760 5758 5757 5756 5754 5753 5752 5750 5749 5748 5748 5747
5789 5789 5790 5790 5791 5791 5790 5790 5789 5789 5788 5788 5786 5785 5784 5782 5781 5779 5778 5776 5775 5774 5773 5771 5770 5769 5767 5766 5765 5764 5763 5762 5761 5759 5758 5757 5755 5754 5753 5751 5751 5750 5749 5748
5788 5788 5789 5789 5790 5790 5790 5789 5789 5789 5788 5787 5786 5785 5784 5783 5782 5780 5779 5778 5776 5775 5774 5772 5771 5770 5769 5768 5766 5765 5764 5763 5762 5760 5759 5758 5756 5755 5754 5753 5751 5750 5749 5749
5786 5787 5788 5788 5789 5789 5789 5789 5789 5788 5788 5787 5786 5786 5785 5784 5782 5781 5780 5778 5777 5776 5775 5773 5772 5771 5770 5769 5767 5766 5765 5763 5762 5761 5759 5758 5757 5755 5754 5753 5752 5751 5750 5749
5785 5786 5787 5787 5788 5788 5788 5788 5788 5788 5788 5787 5786 5786 5785 5784 5783 5782 5781 5779 5778 5777 5776 5774 5773 5772 5771 5769 5768 5767 5766 5764 5763 5761 5760 5758 5757 5755 5754 5753 5752 5751 5750 5749
5783 5784 5785 5786 5787 5787 5787 5787 5787 5787 5787 5787 5786 5785 5785 5784 5783 5782 5781 5780 5779 5777 5776 5775 5774 5772 5771 5770 5769 5767 5766 5765 5763 5761 5760 5758 5757 5755 5754 5753 5752 5751 5750 5749
5781 5782 5783 5784 5785 5786 5786 5786 5786 5787 5787 5786 5786 5785 5785 5784 5783 5782 5781 5780 5778 5777 5776 5775 5774 5772 5771 5770 5769 5767 5766 5764 5763 5762 5760 5758 5757 5755 5754 5752 5751 5750 5749 5747
5779 5780 5782 5783 5783 5784 5785 5785 5785 5785 5785 5785 5785 5785 5784 5783 5782 5781 5781 5779 5778 5777 5776 5774 5773 5772 5771 5769 5768 5766 5765 5764 5762 5761 5759 5757 5756 5754 5753 5751 5749 5748 5746 5745
5776 5778 5779 5780 5781 5782 5783 5783 5784 5784 5784 5784 5784 5783 5783 5782 5781 5780 5779 5778 5777 5776 5775 5774 5772 5771 5769 5768 5766 5765 5763 5762 5760 5759 5757 5755 5754 5752 5750 5749 5747 5745 5744 5742
5773 5775 5777 5778 5779 5780 5781 5781 5782 5782 5782 5782 5782 5781 5781 5780 5779 5778 5777 5776 5775 5774 5773 5771 5770 5769 5767 5766 5764 5762 5761 5759 5758 5756 5754 5752 5750 5748 5747 5745 5743 5741 5739 5738
5771 5772 5774 5775 5776 5777 5778 5779 5779 5780 5780 5780 5780 5779 5779 5778 5777 5776 5775 5774 5773 5772 5770 5769 5767 5766 5765 5763 5761 5759 5757 5756 5754 5752 5750 5748 5746 5744 5742 5740 5738 5736 5734 5732
5768 5769 5771 5772 5773 5774 5775 5776 5777 5777 5777 5777 5777 5776 5776 5775 5774 5773 5772 5771 5770 5769 5767 5766 5764 5762 5761 5759 5757 5755 5753 5752 5749 5747 5745 5743 5740 5738 5736 5734 5731 5729 5727 5724